This demonstration page uses our WeatherBlox Daily Observations layout. Learn more.

Left ArrowRight Arrow

41.86663, -103.66717

Hourly Observations for January 11, 2016

Temp ( °F °C ) Dew Point ( °F °C ) Humidity (%) Winds ( mph kmh ) Pressure ( in mb ) Visibility ( mi km ) Precip ( " mm )
12:53 am 00:53 Cloudy 23 -5 14 -10 68 68 NW 8 13 30.08 1019 10 16 N/A
1:53 am 01:53 Cloudy 27 -2.8 16 -8.9 63 63 WNW 13 20 30.06 1018 10 16 N/A
2:53 am 02:53 Cloudy 28 -2.2 16 -8.9 60 60 W 15 24 30.06 1018 10 16 N/A
3:53 am 03:53 Cloudy 28 -2.2 16 -8.9 60 60 WNW 14 22 30.07 1018 10 16 N/A
4:53 am 04:53 Cloudy 27 -2.8 16 -8.9 63 63 W 14 22 30.09 1019 10 16 N/A
5:53 am 05:53 Mostly Clear 25 -3.9 14 -10 63 63 W 14 22 30.10 1019 10 16 N/A
6:53 am 06:53 Clear 25 -3.9 14 -10 63 63 WNW 16 26 30.11 1020 10 16 N/A
7:53 am 07:53 Mostly Cloudy 25 -3.9 14 -10 63 63 NW 15 24 30.12 1020 10 16 N/A
8:53 am 08:53 Sunny 26 -3.3 13 -10.6 57 57 WNW 16 26 30.14 1021 10 16 N/A
9:53 am 09:53 Sunny 28 -2.2 15 -9.4 58 58 WNW 15 24 30.15 1021 10 16 N/A
10:53 am 10:53 Sunny 31 -0.6 15 -9.4 52 52 WNW 16 26 30.13 1020 10 16 N/A
11:53 am 11:53 Sunny 33 0.6 16 -8.9 49 49 WNW 17 28 30.08 1019 10 16 N/A
12:53 pm 12:53 Sunny 35 1.7 17 -8.3 48 48 W 17 28 30.05 1018 10 16 N/A
1:53 pm 13:53 Sunny 36 2.2 17 -8.3 46 46 WNW 22 35 30.03 1017 10 16 N/A
2:53 pm 14:53 Sunny 36 2.2 17 -8.3 46 46 W 18 30 30.04 1017 10 16 N/A
3:53 pm 15:53 Sunny 34 1.1 16 -8.9 48 48 W 21 33 30.04 1017 10 16 N/A
4:53 pm 16:53 Clear 31 -0.6 15 -9.4 52 52 W 18 30 30.07 1018 10 16 N/A
5:53 pm 17:53 Clear 29 -1.7 14 -10 54 54 W 18 30 30.09 1019 10 16 N/A
6:53 pm 18:53 Clear 28 -2.2 13 -10.6 53 53 W 21 33 30.10 1019 10 16 N/A
7:53 pm 19:53 Clear 27 -2.8 12 -11.1 53 53 W 15 24 30.11 1020 10 16 N/A
8:53 pm 20:53 Clear 26 -3.3 11 -11.7 53 53 WNW 15 24 30.10 1019 10 16 N/A
9:53 pm 21:53 Clear 22 -5.6 11 -11.7 63 63 NW 8 13 30.12 1020 10 16 N/A
10:53 pm 22:53 Clear 15 -9.4 7 -13.9 70 70 NW 9 15 30.14 1021 10 16 N/A
11:53 pm 23:53 Clear 14 -10 6 -14.4 71 71 NW 8 13 30.15 1021 10 16 N/A

Powered by AerisWeather